• In United Kingdom
  • List of Countries
  • For 7 days
  • Water Temperature
  • Satellite Maps
  • Weather Map
  • Weather Widgets
  • user-avatar
    Login

    Hourly Weather Ghanzi

    Today, 14 December, Thursday

    Time Temperature Precipitation Wind Pressure Humidity
    00:00 +17°C° 0 mm 5 mps 720 mmHg 36%
    01:00 +16°C° 0 mm 5 mps 720 mmHg 38%
    02:00 +16°C° 0 mm 5 mps 719 mmHg 41%
    03:00 +15°C° 0 mm 5 mps 719 mmHg 45%
    04:00 +14°C° 0 mm 4 mps 719 mmHg 48%
    05:00 +14°C° 0 mm 4 mps 719 mmHg 49%
    06:00 +14°C° 0 mm 4 mps 720 mmHg 50%
    07:00 +14°C° 0 mm 4 mps 720 mmHg 51%
    08:00 +17°C° 0 mm 4 mps 720 mmHg 45%
    09:00 +20°C° 0 mm 5 mps 721 mmHg 39%
    10:00 +22°C° 0 mm 5 mps 721 mmHg 32%
    11:00 +23°C° 0 mm 5 mps 721 mmHg 29%
    12:00 +24°C° 0 mm 6 mps 720 mmHg 25%
    13:00 +27°C° 0 mm 6 mps 720 mmHg 22%
    14:00 +26°C° 0 mm 6 mps 719 mmHg 22%
    15:00 +26°C° 0 mm 6 mps 719 mmHg 23%
    16:00 +24°C° 0 mm 6 mps 719 mmHg 23%
    17:00 +23°C° 0 mm 6 mps 719 mmHg 26%
    18:00 +21°C° 0 mm 5 mps 719 mmHg 29%
    19:00 +20°C° 0 mm 5 mps 719 mmHg 32%
    20:00 +19°C° 0 mm 5 mps 720 mmHg 34%
    21:00 +17°C° 0 mm 5 mps 720 mmHg 35%
    22:00 +17°C° 0 mm 5 mps 720 mmHg 37%
    23:00 +16°C° 0 mm 5 mps 720 mmHg 40%

    Tomorrow, 15 December, Friday

    Time Temperature Precipitation Wind Pressure Humidity
    00:00 +15°C° 0 mm 5 mps 720 mmHg 42%
    01:00 +15°C° 0 mm 5 mps 719 mmHg 44%
    02:00 +14°C° 0 mm 5 mps 719 mmHg 46%
    03:00 +14°C° 0 mm 4 mps 719 mmHg 48%
    04:00 +13°C° 0 mm 4 mps 719 mmHg 50%
    05:00 +13°C° 0 mm 4 mps 719 mmHg 51%
    06:00 +13°C° 0 mm 4 mps 719 mmHg 51%
    07:00 +13°C° 0 mm 4 mps 720 mmHg 51%
    08:00 +15°C° 0 mm 5 mps 720 mmHg 45%
    09:00 +17°C° 0 mm 5 mps 720 mmHg 38%
    10:00 +20°C° 0 mm 6 mps 721 mmHg 31%
    11:00 +21°C° 0 mm 5 mps 720 mmHg 27%
    12:00 +23°C° 0 mm 5 mps 720 mmHg 23%
    13:00 +25°C° 0 mm 5 mps 719 mmHg 20%
    14:00 +25°C° 0 mm 5 mps 719 mmHg 19%
    15:00 +25°C° 0 mm 5 mps 718 mmHg 19%
    16:00 +23°C° 0 mm 5 mps 718 mmHg 19%
    17:00 +22°C° 0 mm 5 mps 718 mmHg 22%
    18:00 +20°C° 0 mm 4 mps 719 mmHg 25%
    19:00 +18°C° 0 mm 4 mps 719 mmHg 27%
    20:00 +18°C° 0 mm 4 mps 719 mmHg 30%
    21:00 +17°C° 0 mm 4 mps 719 mmHg 32%
    22:00 +15°C° 0 mm 4 mps 719 mmHg 34%
    23:00 +15°C° 0 mm 4 mps 719 mmHg 36%

    Day after tomorrow, 16 December, Saturday

    Time Temperature Precipitation Wind Pressure Humidity
    00:00 +14°C° 0 mm 4 mps 719 mmHg 38%
    01:00 +13°C° 0 mm 4 mps 718 mmHg 40%
    02:00 +13°C° 0 mm 3 mps 718 mmHg 42%
    03:00 +12°C° 0 mm 3 mps 718 mmHg 43%
    04:00 +12°C° 0 mm 3 mps 717 mmHg 45%
    05:00 +12°C° 0 mm 3 mps 718 mmHg 44%
    06:00 +12°C° 0 mm 3 mps 718 mmHg 43%
    07:00 +12°C° 0 mm 3 mps 718 mmHg 42%
    08:00 +15°C° 0 mm 2 mps 719 mmHg 36%
    09:00 +17°C° 0 mm 2 mps 719 mmHg 29%
    10:00 +20°C° 0 mm 2 mps 719 mmHg 23%
    11:00 +21°C° 0 mm 2 mps 719 mmHg 20%
    12:00 +24°C° 0 mm 2 mps 718 mmHg 17%
    13:00 +25°C° 0 mm 2 mps 717 mmHg 14%
    14:00 +25°C° 0 mm 2 mps 717 mmHg 14%
    15:00 +25°C° 0 mm 2 mps 717 mmHg 14%
    16:00 +25°C° 0 mm 2 mps 717 mmHg 13%
    17:00 +23°C° 0 mm 2 mps 717 mmHg 15%
    18:00 +21°C° 0 mm 2 mps 717 mmHg 17%
    19:00 +19°C° 0 mm 3 mps 717 mmHg 19%
    20:00 +18°C° 0 mm 3 mps 717 mmHg 20%
    21:00 +18°C° 0 mm 3 mps 718 mmHg 21%
    22:00 +17°C° 0 mm 3 mps 718 mmHg 22%
    23:00 +17°C° 0 mm 2 mps 717 mmHg 23%

    17 December, Sunday

    Time Temperature Precipitation Wind Pressure Humidity
    00:00 +16°C° 0 mm 2 mps 717 mmHg 24%
    01:00 +15°C° 0 mm 2 mps 717 mmHg 25%
    02:00 +15°C° 0 mm 2 mps 716 mmHg 25%
    03:00 +15°C° 0 mm 2 mps 716 mmHg 26%
    04:00 +14°C° 0 mm 2 mps 716 mmHg 27%
    05:00 +14°C° 0 mm 2 mps 716 mmHg 27%
    06:00 +15°C° 0 mm 2 mps 716 mmHg 27%
    07:00 +15°C° 0 mm 2 mps 717 mmHg 27%
    08:00 +17°C° 0 mm 2 mps 717 mmHg 24%
    09:00 +19°C° 0 mm 3 mps 717 mmHg 22%
    10:00 +22°C° 0 mm 3 mps 718 mmHg 19%
    11:00 +24°C° 0 mm 2 mps 717 mmHg 17%
    12:00 +25°C° 0 mm 2 mps 716 mmHg 15%
    13:00 +27°C° 0 mm 2 mps 716 mmHg 13%
    14:00 +27°C° 0 mm 2 mps 716 mmHg 13%
    15:00 +26°C° 0 mm 2 mps 715 mmHg 13%
    16:00 +26°C° 0 mm 2 mps 715 mmHg 12%
    17:00 +25°C° 0 mm 3 mps 716 mmHg 14%
    18:00 +22°C° 0 mm 3 mps 716 mmHg 16%
    19:00 +20°C° 0 mm 3 mps 716 mmHg 17%
    20:00 +20°C° 0 mm 3 mps 717 mmHg 18%
    21:00 +19°C° 0 mm 4 mps 717 mmHg 19%
    22:00 +18°C° 0 mm 4 mps 717 mmHg 20%
    23:00 +18°C° 0 mm 3 mps 717 mmHg 22%

    18 December, Monday

    Time Temperature Precipitation Wind Pressure Humidity
    00:00 +17°C° 0 mm 3 mps 717 mmHg 23%
    01:00 +17°C° 0 mm 3 mps 717 mmHg 25%
    02:00 +16°C° 0 mm 3 mps 716 mmHg 26%
    03:00 +16°C° 0 mm 3 mps 716 mmHg 27%
    04:00 +14°C° 0 mm 3 mps 716 mmHg 28%
    05:00 +15°C° 0 mm 2 mps 716 mmHg 28%
    06:00 +15°C° 0 mm 2 mps 716 mmHg 28%
    07:00 +15°C° 0 mm 2 mps 717 mmHg 28%
    08:00 +18°C° 0 mm 2 mps 717 mmHg 25%
    09:00 +20°C° 0 mm 2 mps 717 mmHg 21%
    10:00 +22°C° 0 mm 3 mps 718 mmHg 18%
    11:00 +25°C° 0 mm 2 mps 717 mmHg 16%
    12:00 +26°C° 0 mm 2 mps 716 mmHg 14%
    13:00 +27°C° 0 mm 2 mps 716 mmHg 13%
    14:00 +27°C° 0 mm 2 mps 716 mmHg 13%
    15:00 +27°C° 0 mm 2 mps 715 mmHg 13%
    16:00 +27°C° 0 mm 2 mps 715 mmHg 13%
    17:00 +25°C° 0 mm 2 mps 715 mmHg 14%
    18:00 +22°C° 0 mm 3 mps 715 mmHg 16%
    19:00 +21°C° 0 mm 3 mps 716 mmHg 18%
    20:00 +20°C° 0 mm 3 mps 716 mmHg 19%
    21:00 +20°C° 0 mm 3 mps 716 mmHg 21%
    22:00 +19°C° 0 mm 3 mps 716 mmHg 22%
    23:00 +18°C° 0 mm 3 mps 716 mmHg 23%

    19 December, Tuesday

    Time Temperature Precipitation Wind Pressure Humidity
    00:00 +18°C° 0 mm 3 mps 716 mmHg 24%
    01:00 +17°C° 0 mm 3 mps 716 mmHg 25%
    02:00 +17°C° 0 mm 3 mps 715 mmHg 25%
    03:00 +16°C° 0 mm 3 mps 715 mmHg 26%
    04:00 +16°C° 0 mm 3 mps 715 mmHg 26%
    05:00 +16°C° 0 mm 3 mps 715 mmHg 27%
    06:00 +16°C° 0 mm 2 mps 716 mmHg 27%
    07:00 +16°C° 0 mm 2 mps 716 mmHg 27%
    08:00 +18°C° 0 mm 2 mps 716 mmHg 25%
    09:00 +21°C° 0 mm 2 mps 717 mmHg 23%
    10:00 +24°C° 0 mm 3 mps 717 mmHg 20%
    11:00 +25°C° 0 mm 3 mps 716 mmHg 19%
    12:00 +27°C° 0 mm 3 mps 716 mmHg 18%
    13:00 +28°C° 0 mm 3 mps 715 mmHg 17%
    14:00 +28°C° 0 mm 2 mps 715 mmHg 17%
    15:00 +27°C° 0 mm 2 mps 714 mmHg 17%
    16:00 +27°C° 0 mm 1 mps 714 mmHg 18%
    17:00 +25°C° 0 mm 1 mps 714 mmHg 20%
    18:00 +24°C° 0 mm 2 mps 714 mmHg 23%
    19:00 +21°C° 0 mm 2 mps 714 mmHg 25%
    20:00 +20°C° 0 mm 2 mps 715 mmHg 26%
    21:00 +20°C° 0 mm 2 mps 715 mmHg 26%
    22:00 +20°C° 0 mm 3 mps 715 mmHg 27%
    23:00 +19°C° 0 mm 2 mps 714 mmHg 28%
    Show more